Showing default

KUIPER-00139, 65765

Orbit data source: Space-Track

KUIPER-00139, 65765 is a payload satellite owned by Kuiper Systems (US) in LEO that was launched on Thu, 25 Sep 2025 UTC via an ATLAS V 551 launch vehicle from the Air Force Eastern Test Range (AFETR). Payload-class satellites include a variety of spacecraft equipped with specific instruments for various scientific and technological missions. These include communications satellites like Starlink; space stations such as the ISS; scientific satellites like the Hubble; Earth observation satellites from companies like Planet Labs, Umbra, and HawkEye 360; GPS; miniature CubeSats for education and research; and military/defense satellites.

Loading next visibility...
Identifier
65765, 2025-217D
Orbit
LEO
Country
Flag of USUS
Related business
Manufacturer
Kuiper Systems
Mission
Operational Commercial Communications
Bus & Motor
KUIPER, Unknown motor
Mass
~490 kg wet, ~490 kg dry
Launch date (UTC)
2025-09-25 (9 months ago)
Launch vehicle
ATLAS V 551
Launch site
Air Force Eastern Test Range (AFETR)
Object type
Payload
Rocket body
Debris
Shape & HBR
Box + 2 Pan, 3.4 m
Radar Cross Section
2.326 m², Large (>1 m²)

Expand to show TLE details & history
Last TLE update: 20 hours ago

TLE from 20 hours ago
0 KUIPER-00139
1 65765U 25217D   26171.00002315 -.00032830  00000-0 -42994-2 0  9992
2 65765  51.8979 288.2132 0000967  73.6417  24.9235 14.79923803  5057
Epoch: 2026-06-20T00:00Z
TLE epoch observation values (Epoch: 2026-06-20T00:00:02.000Z)
Latitude
51.23968°
Longitude
123.72302°
Altitude
634.944 km
Speed
7.547 km/s
True Right ascension
02h 07m 48s
True Declination
51° 04' 07"
Sunlit
Object was in daylight at epoch
Visualization orbit readout
Latitude
Unknown
Longitude
Unknown
Altitude
Unknown
Speed
Unknown
Apparent Right ascension
Unknown
Apparent Declination
Unknown
Sunlit
N/A
Visualization observer readout
Local Sidereal Time
07:12:24
Azimuth
Unknown
Elevation
Unknown
Doppler factor
Unknown
Orbital elements
Apogee altitude
630.694 km
Perigee altitude
629.338 km
Semi-major axis
7,008.153 km
Eccentricity
0.0001
Inclination
51.8979°
RAAN
288.2132°
Arg. of periapsis
73.6417°
True anomaly
24.92817°
Mean anomaly
24.9235°
Eccentric anomaly
24.92584°
Mean motion
3.69946 °/min
Orbital period
97.31 mins
BSTAR
-0.0042994
Loading maneuver chart data...
Computing Atmospheric mass density...
Loading historical data...
Loading historical data...
Loading historical data...
Loading historical data...
Loading historical data...
Loading historical data...
Loading historical data...

Documentation

Showing up to 5 results
|